TRA5367 EHRD-LGIR

Flight info

Callsign TRA5367
Flight time N/A
Altitude 35000
Route LUNIX Z739 MISGO DCT DOJOH DCT DODEN DCT NEGIX DCT DINKU M867 XERUM DCT BAVAX DCT RADIZ DCT NEMEK DCT ELTIB DCT GLOMY DCT INLOT/N0446F370 DCT PINDO DCT KEA UL607 GIVIS T514 XAVIS
Aircraft B738/M-SDE2E3FGHIRWXY/LB1

Departure

Time 2026-05-08 06:10
Airport Rotterdam The Hague Airport (EHRD)

Arrival

Time N/A
Airport Heraklion International Nikos Kazantzakis Airport (LGIR)
Time Latitude Longitude Altitude Speed Heading
2026-05-08 05:39 51.94990 4.43451 -7 ft 0 kts 327°
2026-05-08 06:04 51.94991 4.43451 -7 ft 0 kts 327°
2026-05-08 06:05 51.95001 4.43440 -7 ft 3 kts 328°
2026-05-08 06:05 51.95030 4.43440 -7 ft 5 kts 30°
2026-05-08 06:05 51.95053 4.43484 -7 ft 5 kts 56°
2026-05-08 06:05 51.95073 4.43533 -7 ft 5 kts 56°
2026-05-08 06:06 51.95099 4.43571 -7 ft 6 kts 11°
2026-05-08 06:06 51.95138 4.43544 -7 ft 7 kts 327°
2026-05-08 06:06 51.95182 4.43498 -6 ft 8 kts 327°
2026-05-08 06:06 51.95223 4.43455 -6 ft 5 kts 326°
2026-05-08 06:07 51.95240 4.43403 -6 ft 7 kts 258°
2026-05-08 06:07 51.95208 4.43318 -6 ft 11 kts 236°
2026-05-08 06:07 51.95158 4.43189 -6 ft 15 kts 239°
2026-05-08 06:07 51.95125 4.43079 -6 ft 6 kts 246°
2026-05-08 06:08 51.95108 4.43021 -6 ft 6 kts 249°
2026-05-08 06:08 51.95115 4.42949 -6 ft 8 kts 306°
2026-05-08 06:08 51.95170 4.42885 -6 ft 12 kts 326°
2026-05-08 06:08 51.95205 4.42851 -6 ft 6 kts 338°
2026-05-08 06:09 51.95236 4.42896 -6 ft 8 kts 60°
2026-05-08 06:09 51.95312 4.43086 -6 ft 49 kts 57°
2026-05-08 06:09 51.95642 4.43909 -6 ft 122 kts 57°
2026-05-08 06:09 51.96214 4.45339 123 ft 170 kts 57°
2026-05-08 06:10 51.96887 4.47020 801 ft 184 kts 58°
2026-05-08 06:10 51.97581 4.48830 1677 ft 187 kts 62°
2026-05-08 06:10 51.98201 4.50750 2412 ft 197 kts 64°
2026-05-08 06:10 51.98851 4.52855 2729 ft 221 kts 64°
2026-05-08 06:11 51.99568 4.55158 3092 ft 234 kts 62°
2026-05-08 06:11 52.00577 4.57242 3617 ft 239 kts 39°
2026-05-08 06:11 52.01954 4.58745 4239 ft 240 kts 27°
2026-05-08 06:11 52.03480 4.59890 4831 ft 242 kts 24°
2026-05-08 06:12 52.05025 4.60995 5389 ft 246 kts 29°
2026-05-08 06:12 52.06285 4.62897 5886 ft 253 kts 53°
2026-05-08 06:12 52.07127 4.65455 6182 ft 268 kts 79°
2026-05-08 06:12 52.07073 4.68485 6883 ft 271 kts 100°
2026-05-08 06:13 52.06722 4.71502 7663 ft 274 kts 102°
2026-05-08 06:13 52.06376 4.74585 8377 ft 279 kts 101°
2026-05-08 06:13 52.06085 4.77726 9122 ft 284 kts 98°
2026-05-08 06:13 52.05847 4.80933 9881 ft 287 kts 98°
2026-05-08 06:14 52.05619 4.84185 10492 ft 296 kts 98°
2026-05-08 06:14 52.05371 4.87647 10661 ft 320 kts 98°
2026-05-08 06:14 52.05097 4.91353 10859 ft 340 kts 98°
2026-05-08 06:14 52.04805 4.95227 11352 ft 350 kts 98°
2026-05-08 06:15 52.04504 4.99158 12096 ft 351 kts 98°
2026-05-08 06:15 52.04198 5.03123 12762 ft 356 kts 98°
2026-05-08 06:15 52.03884 5.07142 13380 ft 362 kts 98°
2026-05-08 06:15 52.03568 5.11163 14060 ft 365 kts 98°
2026-05-08 06:16 52.03244 5.15261 14673 ft 368 kts 98°
2026-05-08 06:16 52.02912 5.19419 15269 ft 372 kts 98°
2026-05-08 06:16 52.02577 5.23606 15855 ft 376 kts 98°
2026-05-08 06:16 52.02237 5.27835 16441 ft 380 kts 98°
2026-05-08 06:17 52.01538 5.36449 17592 ft 389 kts 98°
2026-05-08 06:17 52.01182 5.40817 18166 ft 393 kts 98°
2026-05-08 06:17 52.00820 5.45227 18695 ft 396 kts 98°
2026-05-08 06:18 52.00453 5.49674 19211 ft 399 kts 98°
2026-05-08 06:18 52.00081 5.54161 19753 ft 401 kts 98°
2026-05-08 06:18 51.99707 5.58668 20272 ft 404 kts 98°
2026-05-08 06:18 51.99456 5.61662 20598 ft 406 kts 98°
2026-05-08 06:19 51.99075 5.66220 21087 ft 409 kts 98°
2026-05-08 06:19 51.98688 5.70821 21575 ft 412 kts 98°
2026-05-08 06:19 51.98295 5.75453 22062 ft 415 kts 98°
2026-05-08 06:19 51.97840 5.80089 22537 ft 418 kts 102°
2026-05-08 06:20 51.97150 5.84679 22988 ft 420 kts 108°
2026-05-08 06:20 51.96057 5.89083 23325 ft 424 kts 124°
2026-05-08 06:20 51.94065 5.92549 23759 ft 420 kts 146°
2026-05-08 06:20 51.91670 5.95146 24479 ft 412 kts 148°
2026-05-08 06:21 51.89383 5.98025 24542 ft 427 kts 132°
2026-05-08 06:21 51.87882 6.02188 24962 ft 429 kts 114°
2026-05-08 06:21 51.86770 6.06663 25448 ft 429 kts 113°
2026-05-08 06:21 51.85370 6.10949 25466 ft 437 kts 134°
2026-05-08 06:22 51.82902 6.13632 25864 ft 426 kts 163°
2026-05-08 06:22 51.80083 6.14887 26499 ft 420 kts 168°
2026-05-08 06:22 51.77299 6.16232 26560 ft 432 kts 157°
2026-05-08 06:22 51.74976 6.19354 26752 ft 443 kts 125°
2026-05-08 06:23 51.73643 6.23812 27308 ft 442 kts 110°
2026-05-08 06:23 51.72669 6.28527 27591 ft 446 kts 110°
2026-05-08 06:23 51.71289 6.33013 27555 ft 450 kts 134°
2026-05-08 06:23 51.68858 6.36053 28108 ft 438 kts 153°
2026-05-08 06:24 51.66196 6.38399 28518 ft 439 kts 153°
2026-05-08 06:24 51.63618 6.41126 28458 ft 453 kts 136°
2026-05-08 06:24 51.62011 6.45477 28842 ft 456 kts 109°
2026-05-08 06:24 51.61176 6.50383 29336 ft 455 kts 105°
2026-05-08 06:25 51.58545 6.59652 29120 ft 469 kts 131°
2026-05-08 06:25 51.56407 6.63590 29664 ft 462 kts 134°
2026-05-08 06:25 51.54239 6.67353 30322 ft 455 kts 136°
2026-05-08 06:26 51.52019 6.70962 30656 ft 454 kts 138°
2026-05-08 06:26 51.49735 6.74475 30867 ft 456 kts 139°
2026-05-08 06:26 51.47416 6.77961 31106 ft 457 kts 139°
2026-05-08 06:26 51.45097 6.81443 31433 ft 456 kts 139°
2026-05-08 06:27 51.42802 6.84917 31787 ft 454 kts 139°
2026-05-08 06:27 51.40513 6.88407 32101 ft 453 kts 139°
2026-05-08 06:27 51.38268 6.91851 32367 ft 454 kts 138°
2026-05-08 06:27 51.35990 6.95356 32640 ft 453 kts 138°
2026-05-08 06:28 51.33718 6.98852 32941 ft 453 kts 138°
2026-05-08 06:28 51.31452 7.02336 33235 ft 452 kts 138°
2026-05-08 06:28 51.29180 7.05823 33501 ft 452 kts 139°
2026-05-08 06:28 51.26906 7.09306 33775 ft 451 kts 139°
2026-05-08 06:29 51.24644 7.12764 34054 ft 451 kts 139°
2026-05-08 06:29 51.22373 7.16229 34262 ft 451 kts 139°
2026-05-08 06:29 51.20106 7.19683 34462 ft 451 kts 139°
2026-05-08 06:29 51.17839 7.23133 34647 ft 451 kts 139°
2026-05-08 06:30 51.15568 7.26583 34844 ft 451 kts 139°
2026-05-08 06:30 51.13321 7.29991 35031 ft 451 kts 139°
2026-05-08 06:30 51.08751 7.36909 35106 ft 454 kts 139°
2026-05-08 06:31 51.04183 7.43808 35114 ft 452 kts 139°
2026-05-08 06:31 50.99637 7.50653 35114 ft 449 kts 139°
2026-05-08 06:32 50.95111 7.57448 35114 ft 447 kts 139°
2026-05-08 06:32 50.90597 7.64206 35113 ft 446 kts 139°
2026-05-08 06:33 50.86079 7.70954 35113 ft 446 kts 139°
2026-05-08 06:33 50.81550 7.77696 35108 ft 448 kts 139°
2026-05-08 06:34 50.77001 7.84459 35109 ft 450 kts 139°
2026-05-08 06:34 50.72429 7.91242 35106 ft 452 kts 139°
2026-05-08 06:35 50.67832 7.98045 35106 ft 454 kts 139°
2026-05-08 06:35 50.63208 8.04870 35102 ft 456 kts 139°
2026-05-08 06:36 50.58635 8.11828 35101 ft 459 kts 135°
2026-05-08 06:36 50.54596 8.19625 35112 ft 461 kts 129°
2026-05-08 06:37 50.50772 8.27729 35116 ft 461 kts 129°
2026-05-08 06:37 50.46850 8.35598 35119 ft 460 kts 131°
2026-05-08 06:38 50.42833 8.43407 35127 ft 459 kts 131°
2026-05-08 06:38 50.38832 8.51185 35124 ft 458 kts 131°
2026-05-08 06:39 50.34749 8.58829 35122 ft 456 kts 134°
2026-05-08 06:39 50.30456 8.66143 35127 ft 455 kts 137°
2026-05-08 06:40 50.26022 8.73200 35125 ft 454 kts 137°
2026-05-08 06:40 50.21623 8.80279 35124 ft 454 kts 136°
2026-05-08 06:41 50.17288 8.87413 35130 ft 455 kts 136°
2026-05-08 06:41 50.12952 8.94604 35120 ft 455 kts 136°
2026-05-08 06:42 50.08605 9.01800 35135 ft 456 kts 136°
2026-05-08 06:42 50.04245 9.08988 35126 ft 457 kts 136°
2026-05-08 06:43 49.99874 9.16167 35110 ft 458 kts 136°
2026-05-08 06:43 49.95486 9.23354 35116 ft 459 kts 136°
2026-05-08 06:44 49.91081 9.30548 35117 ft 459 kts 136°
2026-05-08 06:44 49.86670 9.37733 35106 ft 460 kts 136°
2026-05-08 06:45 49.82250 9.44911 35096 ft 460 kts 136°
2026-05-08 06:45 49.77831 9.52068 35107 ft 460 kts 136°
2026-05-08 06:46 49.73433 9.59171 35099 ft 460 kts 136°
2026-05-08 06:46 49.69005 9.66302 35098 ft 459 kts 136°
2026-05-08 06:47 49.64581 9.73406 35098 ft 459 kts 137°
2026-05-08 06:47 49.60156 9.80492 35104 ft 458 kts 137°
2026-05-08 06:48 49.55722 9.87574 35102 ft 458 kts 137°
2026-05-08 06:48 49.51294 9.94626 35100 ft 458 kts 137°
2026-05-08 06:49 49.46866 10.01658 35103 ft 458 kts 137°
2026-05-08 06:49 49.42427 10.08688 35102 ft 458 kts 137°
2026-05-08 06:50 49.37994 10.15691 35108 ft 458 kts 137°
2026-05-08 06:50 49.33579 10.22646 35129 ft 457 kts 137°
2026-05-08 06:51 49.29129 10.29638 35126 ft 458 kts 137°
2026-05-08 06:51 49.24671 10.36605 35122 ft 457 kts 139°
2026-05-08 06:52 49.19610 10.42218 35144 ft 445 kts 160°
2026-05-08 06:52 49.13935 10.46057 35116 ft 449 kts 155°
2026-05-08 06:53 49.08680 10.51290 35122 ft 452 kts 148°
2026-05-08 06:53 49.03466 10.56657 35132 ft 451 kts 151°
2026-05-08 06:54 48.98101 10.61611 35135 ft 450 kts 153°
2026-05-08 06:54 48.92673 10.66406 35138 ft 451 kts 153°
2026-05-08 06:55 48.87300 10.71220 35139 ft 451 kts 153°
2026-05-08 06:55 48.81906 10.76137 35111 ft 452 kts 150°
2026-05-08 06:56 48.77099 10.82315 35123 ft 459 kts 130°
2026-05-08 06:56 48.73413 10.90256 35114 ft 460 kts 129°
2026-05-08 06:57 48.69287 10.97571 35107 ft 455 kts 137°
2026-05-08 06:57 48.64833 11.04380 35099 ft 455 kts 137°
2026-05-08 06:58 48.60474 11.11314 35101 ft 455 kts 136°
2026-05-08 06:58 48.56198 11.18386 35102 ft 455 kts 135°
2026-05-08 06:59 48.51949 11.25463 35096 ft 455 kts 135°
2026-05-08 06:59 48.47690 11.32521 35097 ft 455 kts 136°
2026-05-08 07:00 48.43426 11.39550 35098 ft 455 kts 136°
2026-05-08 07:00 48.39153 11.46575 35096 ft 455 kts 136°
2026-05-08 07:01 48.34878 11.53584 35100 ft 455 kts 136°
2026-05-08 07:01 48.30630 11.60534 35102 ft 455 kts 136°
2026-05-08 07:02 48.26346 11.67519 35100 ft 454 kts 136°
2026-05-08 07:02 48.21907 11.74235 35101 ft 452 kts 140°
2026-05-08 07:03 48.17232 11.80532 35100 ft 451 kts 143°
2026-05-08 07:03 48.12480 11.86694 35100 ft 451 kts 142°
2026-05-08 07:04 48.07796 11.92952 35101 ft 451 kts 142°
2026-05-08 07:04 48.03146 11.99280 35099 ft 452 kts 141°
2026-05-08 07:05 47.98530 12.05572 35091 ft 452 kts 142°
2026-05-08 07:05 47.93879 12.11888 35096 ft 452 kts 142°
2026-05-08 07:06 47.89221 12.18189 35097 ft 452 kts 142°
2026-05-08 07:06 47.85346 12.23418 35097 ft 452 kts 142°
2026-05-08 07:07 47.80685 12.29693 35092 ft 452 kts 142°
2026-05-08 07:07 47.76012 12.35968 35093 ft 452 kts 142°
2026-05-08 07:08 47.71369 12.42190 35096 ft 452 kts 142°
2026-05-08 07:08 47.66692 12.48443 35096 ft 452 kts 142°
2026-05-08 07:09 47.62010 12.54688 35084 ft 453 kts 142°
2026-05-08 07:09 47.57410 12.61098 35074 ft 455 kts 141°
2026-05-08 07:10 47.52863 12.67609 35069 ft 455 kts 141°
2026-05-08 07:10 47.48303 12.74105 35065 ft 455 kts 141°
2026-05-08 07:11 47.43752 12.80530 35067 ft 455 kts 141°
2026-05-08 07:11 47.39156 12.86982 35074 ft 456 kts 141°
2026-05-08 07:12 47.34548 12.93430 35065 ft 457 kts 141°
2026-05-08 07:12 47.29928 12.99882 35072 ft 458 kts 142°
2026-05-08 07:13 47.25297 13.06335 35074 ft 458 kts 142°
2026-05-08 07:13 47.20661 13.12780 35088 ft 458 kts 142°
2026-05-08 07:14 47.16008 13.19233 35078 ft 458 kts 142°
2026-05-08 07:14 47.11366 13.25653 35096 ft 457 kts 142°
2026-05-08 07:15 47.06725 13.32055 35087 ft 459 kts 142°
2026-05-08 07:15 47.02074 13.38455 35086 ft 458 kts 143°
2026-05-08 07:16 46.97456 13.44793 35093 ft 457 kts 143°
2026-05-08 07:16 46.92826 13.51133 35090 ft 455 kts 143°
2026-05-08 07:17 46.88190 13.57464 35081 ft 457 kts 143°
2026-05-08 07:17 46.83533 13.63806 35078 ft 459 kts 143°
2026-05-08 07:18 46.78857 13.70161 35068 ft 461 kts 143°
2026-05-08 07:18 46.74176 13.76509 35074 ft 458 kts 143°
2026-05-08 07:19 46.69506 13.82822 35069 ft 460 kts 143°
2026-05-08 07:19 46.64795 13.89174 35090 ft 463 kts 143°
2026-05-08 07:20 46.60053 13.95553 35100 ft 466 kts 143°
2026-05-08 07:20 46.55317 14.01912 35107 ft 466 kts 144°
2026-05-08 07:21 46.50560 14.08286 35122 ft 465 kts 144°
2026-05-08 07:21 46.45818 14.14621 35104 ft 461 kts 144°
2026-05-08 07:22 46.41111 14.20895 35110 ft 458 kts 144°
2026-05-08 07:22 46.37500 14.25692 35102 ft 458 kts 144°
2026-05-08 07:23 46.32807 14.31916 35107 ft 457 kts 144°
2026-05-08 07:23 46.28112 14.38126 35104 ft 457 kts 144°
2026-05-08 07:24 46.23419 14.44321 35088 ft 457 kts 144°
2026-05-08 07:24 46.18723 14.50506 35099 ft 456 kts 144°
2026-05-08 07:25 46.14033 14.56667 35102 ft 456 kts 144°
2026-05-08 07:26 46.06985 14.65898 35105 ft 456 kts 144°
2026-05-08 07:26 46.02317 14.71994 35105 ft 456 kts 144°
2026-05-08 07:27 45.97610 14.78124 35091 ft 456 kts 144°
2026-05-08 07:27 45.92907 14.84237 35075 ft 457 kts 144°
2026-05-08 07:28 45.88189 14.90354 35079 ft 457 kts 144°
2026-05-08 07:28 45.83472 14.96456 35100 ft 456 kts 144°
2026-05-08 07:29 45.78776 15.02515 35098 ft 457 kts 144°
2026-05-08 07:29 45.74047 15.08603 35096 ft 457 kts 144°
2026-05-08 07:30 45.69310 15.14687 35092 ft 457 kts 144°
2026-05-08 07:30 45.64572 15.20759 35087 ft 456 kts 144°
2026-05-08 07:31 45.59849 15.26800 35093 ft 455 kts 144°
2026-05-08 07:31 45.55118 15.32791 35101 ft 453 kts 144°
2026-05-08 07:32 45.50345 15.38642 35087 ft 452 kts 145°
2026-05-08 07:32 45.45565 15.44456 35098 ft 452 kts 145°
2026-05-08 07:33 45.40792 15.50270 35090 ft 451 kts 144°
2026-05-08 07:33 45.36036 15.56069 35098 ft 450 kts 144°
2026-05-08 07:34 45.31282 15.61855 35092 ft 450 kts 144°
2026-05-08 07:34 45.26530 15.67625 35083 ft 450 kts 144°
2026-05-08 07:35 45.21800 15.73354 35103 ft 450 kts 144°
2026-05-08 07:35 45.17027 15.79121 35095 ft 451 kts 144°
2026-05-08 07:36 45.12242 15.84891 35084 ft 452 kts 144°
2026-05-08 07:36 45.07442 15.90666 35096 ft 453 kts 144°
2026-05-08 07:37 45.02620 15.96454 35076 ft 455 kts 144°
2026-05-08 07:37 44.97790 16.02238 35092 ft 455 kts 145°
2026-05-08 07:38 44.92944 16.08029 35093 ft 456 kts 144°
2026-05-08 07:38 44.88085 16.13821 35074 ft 457 kts 145°
2026-05-08 07:39 44.83231 16.19595 35098 ft 456 kts 145°
2026-05-08 07:39 44.78406 16.25319 35081 ft 456 kts 145°
2026-05-08 07:40 44.73549 16.31071 35075 ft 456 kts 145°
2026-05-08 07:40 44.68691 16.36809 35085 ft 456 kts 145°
2026-05-08 07:41 44.63842 16.42526 35085 ft 454 kts 145°
2026-05-08 07:41 44.58996 16.48223 35066 ft 453 kts 145°
2026-05-08 07:42 44.54167 16.53889 35060 ft 453 kts 144°
2026-05-08 07:42 44.49347 16.59533 35081 ft 451 kts 144°
2026-05-08 07:43 44.44559 16.65126 35088 ft 450 kts 144°
2026-05-08 07:43 44.39749 16.70733 35076 ft 449 kts 144°
2026-05-08 07:44 44.34937 16.76331 35054 ft 449 kts 144°
2026-05-08 07:44 44.30142 16.81896 35074 ft 448 kts 144°
2026-05-08 07:45 44.25345 16.87446 35066 ft 447 kts 144°
2026-05-08 07:45 44.20557 16.92973 35068 ft 446 kts 144°
2026-05-08 07:46 44.15768 16.98491 35054 ft 447 kts 144°
2026-05-08 07:46 44.10978 17.04000 35070 ft 447 kts 144°
2026-05-08 07:47 44.06180 17.09506 35070 ft 447 kts 144°
2026-05-08 07:47 44.01409 17.14971 35068 ft 447 kts 144°
2026-05-08 07:48 43.96605 17.20460 35069 ft 447 kts 144°
2026-05-08 07:48 43.91805 17.25934 35076 ft 447 kts 144°
2026-05-08 07:49 43.86999 17.31401 35058 ft 447 kts 144°
2026-05-08 07:49 43.82189 17.36862 35071 ft 446 kts 144°
2026-05-08 07:50 43.77382 17.42309 35072 ft 446 kts 144°
2026-05-08 07:50 43.72577 17.47742 35082 ft 445 kts 144°
2026-05-08 07:51 43.67779 17.53155 35072 ft 445 kts 144°
2026-05-08 07:51 43.63021 17.58513 35084 ft 443 kts 144°
2026-05-08 07:52 43.58230 17.63897 35051 ft 443 kts 145°
2026-05-08 07:52 43.53483 17.69269 35035 ft 442 kts 144°
2026-05-08 07:53 43.48803 17.74747 35066 ft 440 kts 143°
2026-05-08 07:53 43.44144 17.80228 35072 ft 439 kts 144°
2026-05-08 07:54 43.39489 17.85669 35073 ft 438 kts 144°
2026-05-08 07:54 43.34835 17.91083 35052 ft 438 kts 144°
2026-05-08 07:55 43.30209 17.96446 35021 ft 439 kts 144°
2026-05-08 07:55 43.25548 18.01838 35029 ft 438 kts 144°
2026-05-08 07:56 43.20892 18.07215 35038 ft 438 kts 144°
2026-05-08 07:56 43.17016 18.11683 35072 ft 437 kts 144°
2026-05-08 07:57 43.12333 18.17072 35068 ft 436 kts 144°
2026-05-08 07:57 43.07712 18.22377 35046 ft 437 kts 144°
2026-05-08 07:58 43.03055 18.27715 35060 ft 436 kts 144°
2026-05-08 07:58 42.98395 18.33044 35064 ft 436 kts 144°
2026-05-08 07:59 42.93729 18.38368 35037 ft 437 kts 144°
2026-05-08 07:59 42.89071 18.43675 35054 ft 436 kts 144°
2026-05-08 08:00 42.84418 18.48964 35054 ft 435 kts 143°
2026-05-08 08:00 42.79767 18.54239 35040 ft 435 kts 143°
2026-05-08 08:01 42.75146 18.59470 35050 ft 434 kts 143°
2026-05-08 08:01 42.70491 18.64730 35022 ft 435 kts 144°
2026-05-08 08:02 42.65840 18.69974 35029 ft 435 kts 144°
2026-05-08 08:02 42.61164 18.75235 35016 ft 437 kts 144°
2026-05-08 08:03 42.56479 18.80497 35010 ft 438 kts 144°
2026-05-08 08:03 42.51785 18.85758 35003 ft 438 kts 144°
2026-05-08 08:04 42.47064 18.91038 34995 ft 440 kts 144°
2026-05-08 08:04 42.42346 18.96304 35019 ft 440 kts 144°
2026-05-08 08:05 42.37619 19.01569 35022 ft 440 kts 144°
2026-05-08 08:05 42.32897 19.06819 35015 ft 440 kts 144°
2026-05-08 08:06 42.28201 19.12031 35032 ft 439 kts 144°
2026-05-08 08:06 42.23486 19.17251 35012 ft 438 kts 144°
2026-05-08 08:07 42.18788 19.22444 35024 ft 436 kts 144°
2026-05-08 08:07 42.14106 19.27607 35018 ft 434 kts 144°
2026-05-08 08:08 42.09442 19.32742 35025 ft 432 kts 144°
2026-05-08 08:08 42.04787 19.37857 35022 ft 431 kts 144°
2026-05-08 08:09 42.00137 19.42958 35018 ft 431 kts 144°
2026-05-08 08:09 41.95468 19.47997 35025 ft 430 kts 145°
2026-05-08 08:10 41.90726 19.52864 35025 ft 429 kts 146°
2026-05-08 08:10 41.85956 19.57719 35031 ft 430 kts 146°
2026-05-08 08:11 41.81183 19.62597 35035 ft 432 kts 145°
2026-05-08 08:11 41.76393 19.67501 35122 ft 440 kts 145°
2026-05-08 08:11 41.73952 19.69999 35234 ft 443 kts 145°
2026-05-08 08:12 41.71498 19.72509 35444 ft 443 kts 146°
2026-05-08 08:12 41.69056 19.75007 35746 ft 441 kts 146°
2026-05-08 08:12 41.66623 19.77492 35964 ft 441 kts 146°
2026-05-08 08:13 41.61713 19.82494 36185 ft 445 kts 146°
2026-05-08 08:13 41.59248 19.85002 36451 ft 444 kts 147°
2026-05-08 08:13 41.56790 19.87502 36732 ft 443 kts 147°
2026-05-08 08:13 41.54338 19.89992 36920 ft 442 kts 147°
2026-05-08 08:14 41.51888 19.92477 37041 ft 443 kts 147°
2026-05-08 08:14 41.46976 19.97449 37056 ft 446 kts 147°
2026-05-08 08:15 41.42030 20.02450 37033 ft 445 kts 147°
2026-05-08 08:15 41.37092 20.07432 37024 ft 444 kts 147°
2026-05-08 08:16 41.32207 20.12352 37026 ft 443 kts 147°
2026-05-08 08:16 41.27290 20.17293 37037 ft 442 kts 148°
2026-05-08 08:17 41.22383 20.22215 37055 ft 441 kts 148°
2026-05-08 08:17 41.17477 20.27129 37062 ft 441 kts 148°
2026-05-08 08:18 41.12576 20.32024 37076 ft 441 kts 148°
2026-05-08 08:18 41.07695 20.36891 37092 ft 442 kts 148°
2026-05-08 08:19 41.02773 20.41791 37127 ft 443 kts 148°
2026-05-08 08:19 40.97801 20.46728 37120 ft 448 kts 148°
2026-05-08 08:20 40.92796 20.51691 37115 ft 450 kts 148°
2026-05-08 08:20 40.87771 20.56665 37132 ft 451 kts 148°
2026-05-08 08:21 40.82707 20.61666 37117 ft 455 kts 148°
2026-05-08 08:21 40.77621 20.66680 37118 ft 457 kts 149°
2026-05-08 08:22 40.72542 20.71678 37105 ft 459 kts 149°
2026-05-08 08:22 40.67424 20.76706 37115 ft 458 kts 149°
2026-05-08 08:23 40.62312 20.81718 37115 ft 457 kts 149°
2026-05-08 08:23 40.57216 20.86703 37117 ft 456 kts 149°
2026-05-08 08:24 40.52133 20.91668 37124 ft 454 kts 149°
2026-05-08 08:24 40.47090 20.96639 37121 ft 453 kts 147°
2026-05-08 08:25 40.42339 21.02109 37137 ft 453 kts 142°
2026-05-08 08:25 40.37790 21.07833 37145 ft 453 kts 142°
2026-05-08 08:26 40.33216 21.13533 37135 ft 454 kts 143°
2026-05-08 08:26 40.28581 21.19167 37128 ft 455 kts 143°
2026-05-08 08:27 40.23904 21.24783 37148 ft 457 kts 143°
2026-05-08 08:27 40.19225 21.30380 37146 ft 460 kts 143°
2026-05-08 08:28 40.14492 21.36038 37147 ft 462 kts 143°
2026-05-08 08:28 40.09728 21.41725 37117 ft 465 kts 143°
2026-05-08 08:29 40.04950 21.47421 37142 ft 465 kts 144°
2026-05-08 08:29 40.00162 21.53116 37129 ft 466 kts 144°
2026-05-08 08:30 39.95385 21.58789 37135 ft 464 kts 144°
2026-05-08 08:30 39.88210 21.67286 37138 ft 463 kts 144°
2026-05-08 08:31 39.83443 21.72915 37143 ft 464 kts 144°
2026-05-08 08:31 39.78664 21.78547 37159 ft 462 kts 144°
2026-05-08 08:32 39.73917 21.84132 37094 ft 464 kts 144°
2026-05-08 08:32 39.69147 21.89735 37125 ft 462 kts 144°
2026-05-08 08:33 39.64384 21.95317 37158 ft 460 kts 144°
2026-05-08 08:33 39.59615 22.00894 37155 ft 460 kts 144°
2026-05-08 08:34 39.54856 22.06450 37125 ft 460 kts 145°
2026-05-08 08:34 39.50101 22.11990 37105 ft 460 kts 145°
2026-05-08 08:35 39.45345 22.17521 37113 ft 460 kts 145°
2026-05-08 08:35 39.40602 22.23024 37126 ft 462 kts 145°
2026-05-08 08:36 39.35811 22.28573 37132 ft 463 kts 145°
2026-05-08 08:36 39.30998 22.34137 37143 ft 465 kts 145°
2026-05-08 08:37 39.26166 22.39714 37140 ft 466 kts 145°
2026-05-08 08:37 39.21346 22.45265 37119 ft 468 kts 146°
2026-05-08 08:38 39.16491 22.50848 37134 ft 468 kts 146°
2026-05-08 08:38 39.11617 22.56439 37141 ft 469 kts 146°
2026-05-08 08:39 39.06732 22.62034 37130 ft 470 kts 146°
2026-05-08 08:39 39.01838 22.67628 37129 ft 471 kts 146°
2026-05-08 08:40 38.96935 22.73221 37131 ft 471 kts 146°
2026-05-08 08:40 38.92027 22.78809 37137 ft 471 kts 146°
2026-05-08 08:41 38.87117 22.84390 37132 ft 472 kts 146°
2026-05-08 08:41 38.82200 22.89966 37139 ft 473 kts 146°
2026-05-08 08:42 38.77268 22.95549 37157 ft 472 kts 146°
2026-05-08 08:42 38.72333 23.01124 37125 ft 473 kts 146°
2026-05-08 08:43 38.67391 23.06697 37140 ft 473 kts 146°
2026-05-08 08:43 38.62507 23.12194 37143 ft 474 kts 146°
2026-05-08 08:44 38.57550 23.17762 37130 ft 474 kts 146°
2026-05-08 08:44 38.52589 23.23325 37125 ft 475 kts 147°
2026-05-08 08:45 38.47620 23.28885 37137 ft 476 kts 147°
2026-05-08 08:45 38.42639 23.34449 37160 ft 475 kts 147°
2026-05-08 08:46 38.38493 23.39071 37135 ft 476 kts 147°
2026-05-08 08:46 38.33501 23.44627 37127 ft 477 kts 146°
2026-05-08 08:47 38.28498 23.50187 37131 ft 478 kts 146°
2026-05-08 08:47 38.23479 23.55752 37147 ft 478 kts 147°
2026-05-08 08:48 38.18461 23.61305 37157 ft 478 kts 147°
2026-05-08 08:48 38.13404 23.66887 37148 ft 485 kts 146°
2026-05-08 08:49 38.08271 23.72541 37143 ft 492 kts 146°
2026-05-08 08:49 38.03110 23.78220 37159 ft 496 kts 146°
2026-05-08 08:50 37.97867 23.83981 37109 ft 500 kts 146°
2026-05-08 08:50 37.92616 23.89741 37143 ft 501 kts 146°
2026-05-08 08:51 37.87344 23.95511 37144 ft 501 kts 146°
2026-05-08 08:51 37.82071 24.01270 37179 ft 499 kts 146°
2026-05-08 08:52 37.76807 24.07006 37166 ft 499 kts 146°
2026-05-08 08:52 37.71547 24.12726 37154 ft 499 kts 146°
2026-05-08 08:53 37.66290 24.18434 37149 ft 498 kts 146°
2026-05-08 08:53 37.61075 24.24085 37162 ft 497 kts 146°
2026-05-08 08:54 37.55825 24.29744 37172 ft 495 kts 148°
2026-05-08 08:54 37.53093 24.32313 37112 ft 483 kts 154°
2026-05-08 08:54 37.50284 24.34559 37222 ft 475 kts 157°
2026-05-08 08:55 37.44617 24.38769 37159 ft 476 kts 157°
2026-05-08 08:55 37.41764 24.40900 36740 ft 479 kts 157°
2026-05-08 08:55 37.38923 24.43069 36478 ft 471 kts 156°
2026-05-08 08:56 37.36152 24.45226 36025 ft 469 kts 156°
2026-05-08 08:56 37.33394 24.47385 35727 ft 463 kts 156°
2026-05-08 08:56 37.30678 24.49523 35179 ft 463 kts 156°
2026-05-08 08:56 37.27953 24.51659 35014 ft 454 kts 156°
2026-05-08 08:57 37.25268 24.53762 34310 ft 459 kts 157°
2026-05-08 08:57 37.22596 24.55850 34236 ft 447 kts 157°
2026-05-08 08:57 37.19929 24.57925 33579 ft 449 kts 157°
2026-05-08 08:57 37.17316 24.59964 33236 ft 444 kts 157°
2026-05-08 08:58 37.14694 24.62000 33038 ft 435 kts 157°
2026-05-08 08:58 37.12118 24.64002 32348 ft 440 kts 157°
2026-05-08 08:58 37.09563 24.65988 32237 ft 428 kts 157°
2026-05-08 08:58 37.07046 24.67937 31837 ft 426 kts 157°
2026-05-08 08:59 37.04536 24.69884 31295 ft 428 kts 157°
2026-05-08 08:59 37.01996 24.71844 30805 ft 429 kts 157°
2026-05-08 08:59 36.99438 24.73819 30138 ft 435 kts 156°
2026-05-08 08:59 36.96856 24.75815 29446 ft 438 kts 156°
2026-05-08 09:00 36.94259 24.77823 28763 ft 440 kts 155°
2026-05-08 09:00 36.91650 24.79840 28151 ft 441 kts 155°
2026-05-08 09:00 36.89044 24.81861 27617 ft 440 kts 155°
2026-05-08 09:00 36.86454 24.83875 27127 ft 438 kts 154°
2026-05-08 09:01 36.83873 24.85881 26626 ft 436 kts 154°
2026-05-08 09:01 36.81304 24.87877 26142 ft 434 kts 154°
2026-05-08 09:01 36.78746 24.89862 25653 ft 432 kts 154°
2026-05-08 09:01 36.76191 24.91842 25192 ft 430 kts 154°
2026-05-08 09:02 36.73652 24.93807 24736 ft 429 kts 154°
2026-05-08 09:02 36.71125 24.95760 24271 ft 427 kts 153°
2026-05-08 09:02 36.68598 24.97709 23821 ft 425 kts 153°
2026-05-08 09:02 36.66114 24.99614 23312 ft 423 kts 153°
2026-05-08 09:03 36.63613 25.01526 22784 ft 421 kts 153°
2026-05-08 09:03 36.61117 25.03432 22270 ft 420 kts 153°
2026-05-08 09:03 36.58634 25.05328 21756 ft 418 kts 153°
2026-05-08 09:03 36.56162 25.07215 21256 ft 416 kts 153°
2026-05-08 09:04 36.53696 25.09096 20767 ft 413 kts 152°
2026-05-08 09:04 36.51267 25.10950 20267 ft 406 kts 152°
2026-05-08 09:04 36.48880 25.12772 19798 ft 399 kts 152°
2026-05-08 09:04 36.46528 25.14565 19333 ft 393 kts 151°
2026-05-08 09:05 36.44215 25.16326 18876 ft 388 kts 151°
2026-05-08 09:05 36.41929 25.18064 18403 ft 383 kts 151°
2026-05-08 09:05 36.39667 25.19783 17872 ft 379 kts 151°
2026-05-08 09:05 36.37437 25.21479 17363 ft 374 kts 151°
2026-05-08 09:06 36.35229 25.23156 16859 ft 369 kts 151°
2026-05-08 09:06 36.33063 25.24801 16566 ft 359 kts 151°
2026-05-08 09:06 36.30977 25.26386 16383 ft 346 kts 151°
2026-05-08 09:06 36.28947 25.27925 16100 ft 339 kts 151°
2026-05-08 09:07 36.26947 25.29439 15850 ft 333 kts 151°
2026-05-08 09:07 36.24981 25.30926 15616 ft 330 kts 151°
2026-05-08 09:07 36.23014 25.32411 15381 ft 333 kts 151°
2026-05-08 09:07 36.21025 25.33912 15152 ft 335 kts 151°
2026-05-08 09:08 36.19067 25.35391 14912 ft 332 kts 151°
2026-05-08 09:08 36.17108 25.36872 14667 ft 328 kts 151°
2026-05-08 09:08 36.15143 25.38357 14433 ft 325 kts 151°
2026-05-08 09:08 36.13231 25.39762 14196 ft 322 kts 155°
2026-05-08 09:09 36.11158 25.40688 13805 ft 316 kts 179°
2026-05-08 09:09 36.08981 25.40574 13660 ft 303 kts 191°
2026-05-08 09:09 36.06925 25.40236 13411 ft 305 kts 191°
2026-05-08 09:09 36.04802 25.39982 13139 ft 307 kts 186°
2026-05-08 09:10 36.02668 25.39897 12897 ft 307 kts 184°
2026-05-08 09:10 36.00520 25.39875 12648 ft 311 kts 183°
2026-05-08 09:10 35.98353 25.39864 12395 ft 312 kts 183°
2026-05-08 09:10 35.96191 25.39851 12140 ft 309 kts 183°
2026-05-08 09:11 35.94048 25.39834 11806 ft 307 kts 183°
2026-05-08 09:11 35.91912 25.39809 11419 ft 308 kts 183°
2026-05-08 09:11 35.89776 25.39781 11069 ft 307 kts 183°
2026-05-08 09:11 35.87638 25.39751 10703 ft 306 kts 183°
2026-05-08 09:12 35.85509 25.39719 10343 ft 306 kts 183°
2026-05-08 09:12 35.83384 25.39686 9992 ft 305 kts 183°
2026-05-08 09:12 35.81286 25.39654 9583 ft 298 kts 183°
2026-05-08 09:12 35.79236 25.39624 9199 ft 290 kts 183°
2026-05-08 09:13 35.77239 25.39594 8808 ft 284 kts 183°
2026-05-08 09:13 35.75283 25.39564 8424 ft 278 kts 183°
2026-05-08 09:13 35.73387 25.39535 8054 ft 273 kts 183°
2026-05-08 09:13 35.71477 25.39505 7663 ft 269 kts 183°
2026-05-08 09:14 35.69646 25.39476 7313 ft 264 kts 183°
2026-05-08 09:14 35.67821 25.39446 6952 ft 261 kts 183°
2026-05-08 09:14 35.66014 25.39417 6599 ft 258 kts 182°
2026-05-08 09:14 35.64230 25.39389 6231 ft 255 kts 183°
2026-05-08 09:15 35.62462 25.39361 5851 ft 253 kts 183°
2026-05-08 09:15 35.60698 25.39332 5482 ft 254 kts 183°
2026-05-08 09:15 35.58925 25.39304 5176 ft 255 kts 183°
2026-05-08 09:15 35.57161 25.39276 4962 ft 252 kts 183°
2026-05-08 09:16 35.55420 25.39248 4700 ft 250 kts 183°
2026-05-08 09:16 35.53679 25.39221 4447 ft 249 kts 182°
2026-05-08 09:16 35.51955 25.39193 4208 ft 247 kts 182°
2026-05-08 09:16 35.50242 25.39167 4005 ft 243 kts 182°
2026-05-08 09:17 35.48562 25.39141 3810 ft 240 kts 182°
2026-05-08 09:17 35.46906 25.39115 3608 ft 237 kts 182°
2026-05-08 09:17 35.45271 25.39089 3411 ft 233 kts 183°
2026-05-08 09:17 35.43668 25.38918 3200 ft 231 kts 191°
2026-05-08 09:18 35.42102 25.38530 3003 ft 227 kts 195°
2026-05-08 09:18 35.40582 25.38062 2811 ft 223 kts 197°
2026-05-08 09:18 35.39087 25.37599 2612 ft 221 kts 196°
2026-05-08 09:18 35.37615 25.37170 2452 ft 213 kts 195°
2026-05-08 09:19 35.36224 25.36783 2310 ft 202 kts 195°
2026-05-08 09:19 35.34909 25.36427 2281 ft 185 kts 195°
2026-05-08 09:19 35.33729 25.36018 2251 ft 167 kts 214°
2026-05-08 09:19 35.33106 25.34937 2353 ft 162 kts 253°
2026-05-08 09:20 35.32902 25.33574 2261 ft 161 kts 271°
2026-05-08 09:20 35.32983 25.32258 2407 ft 157 kts 275°
2026-05-08 09:20 35.33086 25.30880 2349 ft 167 kts 275°
2026-05-08 09:20 35.33189 25.29423 2079 ft 172 kts 274°
2026-05-08 09:21 35.33293 25.27985 1823 ft 166 kts 274°
2026-05-08 09:21 35.33390 25.26613 1509 ft 157 kts 275°